Stündliche Wetter Ceara

Heute, 28 Oktober, Mittwoch

Zeit Temperatur Niederschläge Wind Luftdruck Luftfeuchtigkeit
00:00 +26°C° 0 mm 2 m/S 739 mmHg 79%
01:00 +26°C° 0 mm 3 m/S 739 mmHg 78%
02:00 +26°C° 0 mm 3 m/S 738 mmHg 77%
03:00 +27°C° 0 mm 3 m/S 738 mmHg 77%
04:00 +27°C° 0 mm 3 m/S 738 mmHg 75%
05:00 +27°C° 0 mm 3 m/S 739 mmHg 74%
06:00 +27°C° 0 mm 3 m/S 739 mmHg 73%
07:00 +28°C° 0 mm 3 m/S 739 mmHg 68%
08:00 +29°C° 0 mm 3 m/S 740 mmHg 63%
09:00 +30°C° 0 mm 3 m/S 740 mmHg 58%
10:00 +33°C° 0 mm 3 m/S 739 mmHg 53%
11:00 +35°C° 0 mm 3 m/S 739 mmHg 47%
12:00 +36°C° 0 mm 3 m/S 738 mmHg 41%
13:00 +37°C° 0 mm 3 m/S 737 mmHg 38%
14:00 +38°C° 0 mm 3 m/S 736 mmHg 35%
15:00 +39°C° 0 mm 3 m/S 736 mmHg 32%
16:00 +37°C° 0 mm 3 m/S 736 mmHg 36%
17:00 +35°C° 0 mm 2 m/S 737 mmHg 40%
18:00 +34°C° 0 mm 2 m/S 737 mmHg 45%
19:00 +31°C° 0 mm 3 m/S 738 mmHg 50%
20:00 +30°C° 0 mm 3 m/S 738 mmHg 56%
21:00 +28°C° 0 mm 4 m/S 739 mmHg 61%
22:00 +27°C° 0 mm 4 m/S 739 mmHg 67%
23:00 +27°C° 0 mm 3 m/S 739 mmHg 73%

Morgen, 29 Oktober, Donnerstag

Zeit Temperatur Niederschläge Wind Luftdruck Luftfeuchtigkeit
00:00 +26°C° 0 mm 3 m/S 739 mmHg 79%
01:00 +25°C° 0 mm 2 m/S 739 mmHg 80%
02:00 +25°C° 0 mm 2 m/S 739 mmHg 81%
03:00 +25°C° 0 mm 2 m/S 739 mmHg 81%
04:00 +25°C° 0 mm 2 m/S 739 mmHg 81%
05:00 +24°C° 0 mm 2 m/S 740 mmHg 80%
06:00 +24°C° 0 mm 2 m/S 740 mmHg 80%
07:00 +26°C° 0 mm 3 m/S 741 mmHg 71%
08:00 +28°C° 0 mm 3 m/S 741 mmHg 62%
09:00 +30°C° 0 mm 4 m/S 741 mmHg 53%
10:00 +33°C° 0 mm 4 m/S 741 mmHg 46%
11:00 +35°C° 0 mm 4 m/S 740 mmHg 38%
12:00 +37°C° 0 mm 4 m/S 739 mmHg 31%
13:00 +38°C° 0 mm 4 m/S 739 mmHg 28%
14:00 +38°C° 0 mm 4 m/S 738 mmHg 26%
15:00 +40°C° 0 mm 4 m/S 737 mmHg 23%
16:00 +37°C° 0 mm 3 m/S 737 mmHg 28%
17:00 +35°C° 0 mm 3 m/S 738 mmHg 32%
18:00 +34°C° 0 mm 2 m/S 738 mmHg 37%
19:00 +31°C° 0 mm 3 m/S 738 mmHg 44%
20:00 +30°C° 0 mm 4 m/S 739 mmHg 51%
21:00 +28°C° 0 mm 4 m/S 739 mmHg 58%
22:00 +27°C° 0 mm 4 m/S 739 mmHg 64%
23:00 +27°C° 0 mm 3 m/S 739 mmHg 69%

übermorgen, 30 Oktober, Freitag

Zeit Temperatur Niederschläge Wind Luftdruck Luftfeuchtigkeit
00:00 +26°C° 0 mm 3 m/S 739 mmHg 75%
01:00 +25°C° 0 mm 2 m/S 739 mmHg 78%
02:00 +25°C° 0 mm 2 m/S 739 mmHg 81%
03:00 +24°C° 0 mm 2 m/S 739 mmHg 84%
04:00 +24°C° 0 mm 2 m/S 739 mmHg 83%
05:00 +24°C° 0 mm 2 m/S 740 mmHg 81%
06:00 +24°C° 0 mm 2 m/S 740 mmHg 80%
07:00 +26°C° 0 mm 3 m/S 741 mmHg 70%
08:00 +29°C° 0 mm 3 m/S 741 mmHg 60%
09:00 +32°C° 0 mm 4 m/S 741 mmHg 50%
10:00 +34°C° 0 mm 4 m/S 740 mmHg 44%
11:00 +35°C° 0 mm 4 m/S 740 mmHg 38%
12:00 +37°C° 0 mm 4 m/S 739 mmHg 33%
13:00 +38°C° 0 mm 4 m/S 739 mmHg 31%
14:00 +38°C° 0 mm 4 m/S 738 mmHg 29%
15:00 +38°C° 0 mm 4 m/S 737 mmHg 27%
16:00 +37°C° 0 mm 3 m/S 738 mmHg 29%
17:00 +35°C° 0 mm 2 m/S 738 mmHg 32%
18:00 +32°C° 0 mm 1 m/S 738 mmHg 34%
19:00 +31°C° 0 mm 2 m/S 739 mmHg 40%
20:00 +30°C° 0 mm 3 m/S 739 mmHg 45%
21:00 +29°C° 0 mm 4 m/S 739 mmHg 50%
22:00 +28°C° 0 mm 3 m/S 739 mmHg 59%
23:00 +27°C° 0 mm 3 m/S 739 mmHg 68%

31 Oktober, Samstag

Zeit Temperatur Niederschläge Wind Luftdruck Luftfeuchtigkeit
00:00 +26°C° 0 mm 3 m/S 739 mmHg 78%
01:00 +25°C° 0 mm 2 m/S 739 mmHg 79%
02:00 +25°C° 0 mm 2 m/S 739 mmHg 80%
03:00 +25°C° 0 mm 2 m/S 739 mmHg 81%
04:00 +25°C° 0 mm 2 m/S 740 mmHg 81%
05:00 +25°C° 0 mm 2 m/S 740 mmHg 81%
06:00 +25°C° 0 mm 2 m/S 741 mmHg 80%
07:00 +26°C° 0 mm 3 m/S 741 mmHg 72%
08:00 +28°C° 0 mm 3 m/S 741 mmHg 64%
09:00 +30°C° 0 mm 3 m/S 741 mmHg 55%
10:00 +34°C° 0 mm 3 m/S 740 mmHg 45%
11:00 +36°C° 0 mm 3 m/S 740 mmHg 35%
12:00 +39°C° 0 mm 3 m/S 739 mmHg 25%
13:00 +39°C° 0 mm 3 m/S 738 mmHg 23%
14:00 +40°C° 0 mm 3 m/S 738 mmHg 21%
15:00 +40°C° 0 mm 3 m/S 737 mmHg 19%
16:00 +38°C° 0 mm 2 m/S 737 mmHg 21%
17:00 +36°C° 0 mm 2 m/S 737 mmHg 24%
18:00 +33°C° 0 mm 1 m/S 737 mmHg 26%
19:00 +32°C° 0 mm 2 m/S 738 mmHg 38%
20:00 +30°C° 0 mm 2 m/S 739 mmHg 50%
21:00 +29°C° 0 mm 3 m/S 739 mmHg 63%
22:00 +28°C° 0 mm 3 m/S 739 mmHg 68%
23:00 +27°C° 0 mm 2 m/S 739 mmHg 74%

1 November, Sonntag

Zeit Temperatur Niederschläge Wind Luftdruck Luftfeuchtigkeit
00:00 +26°C° 0 mm 2 m/S 739 mmHg 79%
01:00 +25°C° 0 mm 2 m/S 739 mmHg 81%
02:00 +25°C° 0 mm 2 m/S 739 mmHg 83%
03:00 +25°C° 0 mm 2 m/S 739 mmHg 84%
04:00 +25°C° 0 mm 2 m/S 739 mmHg 82%
05:00 +25°C° 0 mm 2 m/S 739 mmHg 81%
06:00 +25°C° 0 mm 3 m/S 740 mmHg 79%
07:00 +27°C° 0 mm 3 m/S 740 mmHg 70%
08:00 +30°C° 0 mm 3 m/S 740 mmHg 60%
09:00 +33°C° 0 mm 3 m/S 741 mmHg 51%
10:00 +35°C° 0 mm 3 m/S 740 mmHg 45%
11:00 +37°C° 0 mm 3 m/S 739 mmHg 39%
12:00 +39°C° 0 mm 3 m/S 738 mmHg 33%
13:00 +39°C° 0 mm 3 m/S 738 mmHg 30%
14:00 +40°C° 0 mm 3 m/S 737 mmHg 28%
15:00 +40°C° 0 mm 2 m/S 736 mmHg 25%
16:00 +38°C° 0 mm 2 m/S 736 mmHg 29%
17:00 +37°C° 0 mm 2 m/S 736 mmHg 33%
18:00 +35°C° 0 mm 2 m/S 737 mmHg 38%
19:00 +33°C° 0 mm 3 m/S 737 mmHg 45%
20:00 +31°C° 0 mm 3 m/S 738 mmHg 52%
21:00 +29°C° 0 mm 4 m/S 738 mmHg 59%
22:00 +28°C° 0 mm 3 m/S 738 mmHg 66%
23:00 +27°C° 0 mm 3 m/S 738 mmHg 73%

2 November, Montag

Zeit Temperatur Niederschläge Wind Luftdruck Luftfeuchtigkeit
00:00 +26°C° 0 mm 3 m/S 738 mmHg 81%
01:00 +26°C° 0 mm 3 m/S 738 mmHg 80%
02:00 +26°C° 0 mm 3 m/S 738 mmHg 79%
03:00 +26°C° 0 mm 3 m/S 738 mmHg 78%
04:00 +26°C° 0 mm 3 m/S 739 mmHg 77%
05:00 +27°C° 0 mm 3 m/S 739 mmHg 76%
06:00 +27°C° 0 mm 3 m/S 739 mmHg 76%
07:00 +27°C° 0 mm 3 m/S 740 mmHg 71%
08:00 +28°C° 0 mm 3 m/S 740 mmHg 66%
09:00 +29°C° 0 mm 2 m/S 740 mmHg 62%
10:00 +31°C° 0 mm 2 m/S 740 mmHg 55%
11:00 +34°C° 0 mm 2 m/S 739 mmHg 49%
12:00 +36°C° 0 mm 2 m/S 738 mmHg 42%
13:00 +37°C° 0 mm 2 m/S 738 mmHg 39%
14:00 +38°C° 0 mm 2 m/S 737 mmHg 35%
15:00 +39°C° 0 mm 2 m/S 736 mmHg 32%
16:00 +37°C° 0 mm 2 m/S 736 mmHg 37%
17:00 +35°C° 0 mm 2 m/S 736 mmHg 41%
18:00 +34°C° 0 mm 3 m/S 736 mmHg 46%
19:00 +31°C° 0 mm 3 m/S 737 mmHg 52%
20:00 +30°C° 0 mm 4 m/S 737 mmHg 57%
21:00 +29°C° 0 mm 4 m/S 738 mmHg 63%
22:00 +28°C° 0 mm 4 m/S 738 mmHg 68%
23:00 +27°C° 0 mm 3 m/S 738 mmHg 74%
Mehr zeigen